El Paso International Airport
KELP : rendu visible

Aérodrome :











RETROUVEZ-NOUS SUR...

 
LOGIN :

S'inscrire | Disclaimer

   EN    FR    IT 

 









Légende :    VFR   VFR Marginal   IFR   IFR Intensif   IFR Très Intensif
Visi : 
Plafond : 
>= 8 km
>= 3000ft
5 à 8 km
1000 à 3000 ft
1500m à 5 km
500 à 1000 ft
800 à 1500m
200 à 500 ft
< 800m
< 200 ft
Symboles :   Orages  Brouillard  Fortes neiges  Fortes précipitations  Vent > 20 kt






- Altitude de l'aérodrome : 3959 ft
- Code IATA : ELP


KELP - El Paso International

DERNIER METAR :
  • 192051Z VRB04KT 9SM CLR 29/04 A3012 RMK AO2 SLP132 T02890044 57029 $

METARs EXPIRÉS :
  • 191951Z VRB04KT 9SM CLR 28/06 A3015 RMK AO2 SLP142 T02830061 $
  • 191851Z VRB04G15KT 10SM CLR 27/07 A3019 RMK AO2 SLP157 T02670072 $

TAF KELP
Valide du 19 à 18h jusqu'au 20 à 18h UTC


191734Z 1918/2018 12008G17KT P6SM FEW250
FM200200 10007KT P6SM SKC
FIR KZAB / Amérique du Nord



MET'MAP, la Météo Aéronautique d'un coup d'oeil ! - Copyright ORBIFLY Décembre 2007 - Disclaimer

ORBIFLY MET'MAP TEAM :

Programmation & Développement : Alexandra Zaïnal
Sur une idée originale de : Baudouin d'Aumeries
Assistance à la programmation : Marc-Olivier Méhu
Soutien technique & logistique : Manuel Goepfert

Contact : metmap@orbifly.com




SOURCES & CREDITS :

   NOAA       Earth
Advisory